SCP
0 0 0 0 0 0 0 0 0 0 0 0 0 0 0 0 0 0 0 0 0 0 0 1 1 1 0 0 0 0 0 0 0 0 0 0 0 0 0 0 0 0 0 0
0 0 0 0 0 0 0 0 0 0 0 0 0 0 0 0 0 0 0 0 0 0 0 0 0 0 0 0 0 0 0 0 0 0 0 0 0 0 0 0 0 0 0 0
0 0 0 0 0 0 0 0 0 0 0 0 0 0 0 0 0 0 0 0 0 0 0 0 0 0 0 0 0 0 0 0 0 0 0 0 0 0 0 0 0 0 0 0
0 0 0 0 0 0 0 0 0 0 0 0 0 0 0 0 0 0 0 0 0 0 0 0 0 0 0 0 0 0 0 0 0 0 0 0 0 0 0 0 0 0 0 0
0 0 0 0 0 0 0 0 0 0 0 0 0 0 0 0 0 0 1 1 1 1 0 0 0 0 0 0 0 0 0 0 0 0 0 0 0 0 0 0 0 0 0 0
0 0 0 0 0 0 0 0 0 0 0 0 0 0 0 0 0 0 0 1 1 1 0 0 0 0 0 0 0 0 0 0 0 0 0 0 0 0 0 0 0 0 0 0
0 0 0 0 0 0 0 0 0 0 0 0 0 0 0 0 0 0 0 1 1 0 0 0 0 0 0 0 0 0 0 0 0 0 0 0 0 0 0 0 0 0 0 0
0 0 0 0 0 0 0 0 0 0 0 0 0 0 0 0 0 0 0 0 0 0 0 0 0 0 0 0 0 0 0 0 0 0 0 0 0 0 0 0 0 0 0 0
0 0 0 0 0 0 0 0 0 0 0 0 0 0 0 0 0 0 0 0 0 0 0 0 0 0 0 0 0 0 0 0 0 0 0 0 0 0 0 0 0 0 0 0
0 0 0 0 0 0 0 0 0 0 0 0 0 0 0 0 0 0 0 0 0 0 0 0 0 0 0 0 0 0 0 0 0 0 0 0 0 0 0 0 0 0 0 0
0 0 0 0 0 0 0 0 0 0 0 0 0 0 0 0 0 0 0 0 0 0 0 0 0 0 0 0 0 0 0 0 0 0 0 0 0 0 0 0 0 0 0 0
0 0 0 0 0 0 0 0 0 0 0 0 0 0 0 0 0 0 0 0 0 0 0 0 0 0 0 0 0 0 0 0 0 0 0 0 0 0 0 0 0 0 0 0
0 0 0 0 0 0 0 0 0 0 0 0 0 0 0 0 0 0 0 0 0 0 0 0 0 0 0 0 0 0 0 0 0 0 0 0 0 0 0 0 0 0 0 0
0 0 0 0 0 0 0 0 0 0 0 0 0 0 0 0 0 0 0 0 0 0 0 0 0 0 0 0 0 0 0 0 0 0 0 0 0 0 0 0 0 0 0 0
0 0 0 0 0 0 0 0 0 0 0 0 0 0 0 0 0 0 0 0 0 0 0 0 0 0 0 0 0 0 0 0 0 0 0 0 0 0 0 0 0 0 0 0
0 0 0 0 0 0 0 0 0 0 0 0 0 0 0 0 0 0 0 0 0 0 0 0 0 0 0 0 0 0 0 0 0 0 0 0 0 0 0 0 0 0 0 0
0 0 0 0 0 0 0 0 0 0 0 0 0 0 0 0 0 0 0 0 0 0 0 0 0 0 0 0 0 0 0 0 0 0 0 0 0 0 0 0 0 0 0 0
0 0 0 0 0 0 0 0 0 0 0 0 0 0 0 0 0 0 0 0 0 0 0 0 0 0 0 0 0 0 0 0 0 0 0 0 0 0 0 0 0 0 0 0
0 0 0 0 0 0 0 0 0 0 0 0 0 0 0 0 0 0 0 0 0 0 0 0 0 0 0 0 0 0 0 0 0 0 0 0 0 0 0 0 0 0 0 0
0 0 0 0 0 0 0 0 0 0 0 0 0 0 0 0 0 0 0 0 0 0 0 0 0 0 0 0 0 0 0 0 0 0 0 0 0 0 0 0 0 0 0 0
0 0 0 0 0 0 0 0 0 0 0 0 0 0 0 0 0 0 0 0 0 0 0 0 0 0 0 0 0 0 0 0 0 0 0 0 0 0 0 0 0 0 0 0
0 0 0 0 0 0 0 0 0 0 0 0 0 0 0 0 0 0 0 0 0 0 0 0 0 0 0 0 0 0 0 0 0 0 0 0 0 0 0 0 0 0 0 0
0 0 0 0 0 0 0 0 0 0 0 0 0 0 0 0 0 0 0 0 0 0 0 0 0 0 0 0 0 0 0 0 0 0 0 0 0 0 0 0 0 0 0 0
0 0 0 0 0 0 0 0 0 0 0 0 0 0 0 0 0 0 0 0 0 0 0 0 0 0 0 0 0 0 0 0 0 0 0 0 0 0 0 0 0 0 0 0
0 0 0 0 0 0 0 0 0 0 0 0 0 0 0 0 0 0 0 0 0 0 0 0 0 0 0 0 0 0 0 0 0 0 0 0 0 0 0 0 0 0 0 0
0 0 0 0 0 0 0 0 0 0 0 0 0 0 0 0 0 0 0 0 0 0 0 0 0 0 0 0 0 0 0 0 0 0 0 0 0 0 0 0 0 0 0 0
0 0 0 0 0 0 0 0 0 0 0 0 0 0 0 0 0 0 0 0 0 0 0 0 0 0 0 0 0 0 0 0 0 0 0 0 0 0 0 0 0 0 0 0
Wind_Speed
16 17 17 16 16 14 14 14 13 11 10 4 1 1 3 4 5 4 4 4 4 3 4 3 3 3 3 3 3 2 3 2 2 2 2 2 1 1 0 1 1 1 2 2
17 17 16 17 15 15 14 12 11 11 9 1 1 2 3 4 4 4 4 4 4 4 4 4 3 3 3 3 2 2 2 2 2 2 2 2 1 1 1 1 1 2 2 2
15 16 15 14 11 10 11 10 9 10 6 2 1 1 2 4 5 4 4 4 4 3 3 3 3 3 3 3 3 3 2 1 2 2 2 2 1 2 2 1 1 2 2 3
12 14 15 9 6 6 8 8 7 6 5 3 2 2 2 2 4 4 5 4 4 3 3 3 3 3 3 3 3 3 2 2 1 1 1 1 2 2 1 1 1 1 1 2
9 12 13 10 6 6 7 7 4 5 4 2 2 2 3 4 5 5 4 4 4 3 4 3 4 3 3 3 3 2 3 2 1 1 1 1 1 2 1 1 1 1 1 2
11 12 12 8 5 5 7 5 3 3 2 1 1 2 2 4 5 5 5 4 4 3 4 4 3 3 4 3 3 2 2 2 2 1 1 1 1 1 1 0 1 0 0 0
12 13 9 6 6 7 6 2 3 2 2 1 1 3 5 5 6 6 5 5 4 4 4 3 3 3 3 3 3 2 2 2 2 1 1 2 2 1 1 1 1 1 1 1
9 10 7 4 5 3 2 2 2 2 2 3 5 6 6 5 5 5 5 5 5 4 4 3 3 3 3 3 2 2 2 2 2 2 1 1 2 1 2 2 2 2 2 2
6 5 4 3 2 1 1 1 1 1 1 3 5 6 6 5 5 5 5 5 4 4 4 4 3 3 3 3 2 2 2 2 2 1 1 1 2 2 2 2 1 1 1 1
9 7 6 5 2 1 1 1 1 1 2 3 4 6 5 5 4 5 5 5 4 4 4 4 3 3 3 3 2 2 3 2 2 2 2 2 1 1 1 0 1 1 1 0
11 9 7 6 3 3 2 1 2 3 3 4 5 5 5 4 5 5 5 4 4 4 4 4 4 3 3 3 3 2 2 2 2 2 2 2 1 1 1 2 1 1 2 2
10 8 6 6 4 3 3 3 3 4 4 5 5 5 6 7 6 6 5 5 4 4 4 4 4 4 3 3 3 3 2 2 2 2 2 2 2 1 0 2 2 1 1 2
10 10 8 6 4 4 4 4 4 5 5 4 5 5 6 7 7 6 6 6 5 5 5 5 5 4 3 3 3 3 2 2 2 2 2 2 2 2 2 2 2 3 4 4
9 9 9 7 5 5 5 4 5 6 5 5 5 5 5 6 6 6 6 6 6 6 5 5 5 5 4 4 3 3 2 2 2 2 2 2 2 2 2 2 3 3 5 8
12 10 9 6 6 6 5 5 6 6 7 6 6 5 5 6 6 6 6 6 6 6 6 5 5 5 4 4 4 3 2 2 1 2 2 2 2 2 2 2 2 2 3 4
12 9 8 8 7 7 7 7 7 7 8 7 7 6 6 6 6 5 5 5 6 6 6 5 5 4 5 4 4 3 3 4 4 3 3 3 3 3 3 3 3 2 3 3
9 8 8 9 9 8 7 7 7 7 8 8 8 7 7 6 6 5 5 5 5 5 5 5 5 4 4 4 4 3 3 4 6 5 4 3 3 3 3 3 3 3 3 2
10 10 9 8 8 7 7 7 7 7 7 8 9 8 7 6 6 6 6 6 5 5 5 5 4 4 5 4 3 3 3 4 4 4 4 3 3 3 4 3 3 3 2 3
9 8 8 8 9 8 7 7 7 7 7 8 8 8 7 7 6 6 6 6 6 6 5 6 6 5 5 4 4 4 5 4 3 4 4 4 5 4 4 4 4 4 4 3
7 6 8 9 9 9 8 8 8 7 7 7 8 8 7 7 7 7 6 5 5 4 5 6 7 6 5 5 5 5 5 5 4 4 3 3 4 4 4 4 4 4 3 3
7 6 7 8 8 9 9 9 8 8 8 8 8 8 8 7 7 6 6 5 5 5 6 7 6 6 5 4 5 6 5 4 3 3 3 3 3 4 4 4 4 4 4 3
6 7 6 5 7 8 8 8 8 8 8 8 8 8 8 7 7 6 6 4 6 7 6 6 6 5 4 4 5 5 4 4 3 3 3 3 4 4 4 4 4 4 4 3
6 6 5 5 6 8 8 8 8 8 8 9 9 8 8 7 6 5 6 5 6 8 6 4 6 7 5 5 5 5 5 4 3 3 4 4 4 4 4 4 3 3 3 3
5 5 5 5 7 8 8 8 8 6 8 8 8 9 8 6 5 5 5 7 8 9 6 6 9 9 7 6 5 5 4 4 4 4 4 4 3 3 3 3 3 3 3 4
6 6 6 6 7 7 8 8 8 8 8 7 8 9 7 6 5 5 5 7 9 9 7 7 10 10 8 6 6 5 5 4 4 4 4 4 4 4 3 2 2 3 3 3
5 6 5 5 5 5 7 7 7 7 7 7 7 7 6 6 6 5 5 7 9 9 7 5 7 8 8 7 6 5 5 5 5 5 4 4 3 3 3 3 3 2 2 3
6 5 5 5 6 7 6 7 7 7 7 7 7 7 7 6 6 6 7 6 7 7 6 6 6 6 7 6 6 5 4 4 3 3 2 2 1 2 2 3 3 3 3 3
Wind_Direction
282 287 288 288 289 288 286 286 287 292 292 288 220 170 119 129 138 140 136 130 124 118 109 106 108 114 114 122 129 127 119 112 114 128 145 152 141 116 102 59 37 15 31 25
288 286 286 287 287 287 286 290 292 297 300 331 93 118 136 145 154 157 150 142 130 118 122 126 129 134 130 128 121 115 110 120 125 138 141 134 121 103 67 57 40 13 26 24
286 292 291 281 287 297 299 303 303 299 309 341 290 131 155 157 162 163 148 142 136 129 128 131 139 139 141 141 132 128 127 131 124 130 120 123 112 88 68 48 30 9 25 43
281 286 276 274 291 287 287 295 306 318 335 352 67 85 82 113 138 141 138 139 138 138 133 134 136 143 142 135 139 145 138 129 131 128 121 122 111 99 81 57 20 355 37 64
269 275 275 280 286 294 293 296 334 323 333 22 81 100 100 92 105 110 111 116 123 137 142 143 143 144 144 148 158 159 147 143 138 126 113 106 95 92 93 66 350 337 61 72
263 273 275 285 312 307 281 274 355 358 355 343 222 263 125 110 108 106 105 109 117 133 143 143 140 149 154 163 168 169 151 133 129 122 109 104 98 90 86 118 258 263 87 119
261 267 268 290 313 303 282 323 30 22 10 25 78 84 116 123 117 113 115 121 132 146 147 148 154 157 159 161 166 162 150 149 148 134 151 141 126 136 207 238 257 255 230 212
268 270 270 329 324 327 350 355 350 6 38 81 102 112 119 125 125 126 130 132 137 138 130 130 146 153 150 146 149 155 157 159 152 157 198 130 134 196 234 230 238 242 220 206
280 274 299 319 319 316 268 302 350 17 87 117 133 137 132 134 141 144 139 135 142 142 133 134 147 155 148 137 141 155 157 150 145 162 162 152 180 213 229 233 241 247 212 200
291 281 290 285 269 249 306 287 193 148 143 145 147 138 135 143 145 141 136 143 150 150 144 148 155 154 148 151 162 166 162 160 168 179 186 177 208 242 249 306 8 1 347 319
277 278 289 278 270 262 240 202 156 159 164 153 148 150 149 159 160 149 146 152 159 159 156 160 163 161 158 163 164 157 157 175 197 201 182 157 175 311 321 23 26 337 337 342
282 284 277 273 260 269 258 232 189 172 161 156 151 158 167 164 155 154 158 162 168 170 167 166 171 166 163 170 166 163 178 189 202 195 182 182 178 160 51 190 157 172 241 268
280 291 287 266 259 252 239 225 193 176 168 167 159 164 162 154 156 161 165 172 177 178 177 173 171 172 172 177 176 178 193 198 227 218 197 194 200 201 199 201 222 259 261 250
275 275 272 257 239 227 220 207 184 168 169 168 163 163 161 159 161 167 172 180 179 179 180 176 174 177 178 182 183 187 205 206 220 249 235 219 221 230 230 213 199 218 233 234
264 258 257 247 242 231 211 194 176 174 168 164 164 168 168 169 171 175 175 174 173 177 178 173 174 176 180 185 186 192 211 234 225 260 263 239 237 246 251 246 231 218 196 208
258 253 247 235 231 223 208 198 188 183 172 167 166 166 165 165 167 170 171 174 176 179 177 174 177 181 183 185 191 194 201 222 232 246 259 254 243 245 248 249 248 239 227 215
248 242 232 227 220 214 207 197 189 184 177 167 163 165 166 163 168 170 172 173 175 177 174 175 180 183 187 188 199 218 214 209 211 228 244 257 268 274 273 264 258 255 251 237
238 234 224 221 219 207 201 195 183 175 174 163 161 164 171 172 178 177 174 171 173 177 179 179 172 183 192 199 205 234 238 234 223 229 238 240 258 272 277 275 269 270 262 227
237 227 219 222 213 194 190 186 178 171 169 166 163 166 175 176 177 180 176 178 181 185 180 168 167 188 197 203 219 224 234 237 234 238 242 234 240 250 259 265 263 267 267 250
220 215 213 217 202 187 187 183 171 161 166 168 165 168 177 180 177 183 182 188 190 177 169 166 178 193 202 202 224 239 239 239 240 246 251 257 263 266 270 274 268 265 266 261
204 208 211 209 190 181 181 171 164 165 172 175 175 177 179 182 179 182 186 190 177 171 170 173 192 199 203 202 216 242 244 240 250 254 259 268 275 280 284 284 286 286 282 277
200 205 208 200 185 176 168 162 165 171 176 179 182 180 176 179 182 186 195 191 172 170 186 192 192 178 182 218 237 244 244 246 259 267 266 268 269 270 272 276 280 283 283 286
199 199 197 188 173 163 161 166 172 177 180 183 183 179 181 184 186 191 193 184 176 177 199 194 157 157 183 225 239 245 247 249 260 264 261 259 262 266 269 272 275 281 285 286
189 188 182 174 168 166 168 173 175 180 183 185 182 178 180 183 188 197 191 173 169 170 192 165 167 177 203 231 235 240 241 241 249 257 265 269 274 273 273 273 278 283 292 298
182 180 177 177 176 172 170 173 175 182 183 183 181 181 184 186 187 186 179 167 162 172 189 181 186 196 216 235 237 234 237 243 253 266 271 275 279 286 290 289 301 309 311 316
182 183 175 192 186 177 178 183 185 184 183 180 182 180 181 179 178 178 179 178 176 184 198 188 188 199 218 231 235 231 233 233 235 239 252 268 285 299 313 316 314 316 329 337
178 174 175 187 185 184 185 189 187 184 184 182 179 177 178 179 180 185 185 180 181 188 198 199 201 205 215 223 227 227 233 239 247 252 258 271 301 312 323 328 336 349 350 350